TimeCST,TemperatureF,Dew PointF,Humidity,Sea Level PressureIn,VisibilityMPH,Wind Direction,Wind SpeedMPH,Gust SpeedMPH,PrecipitationIn,Events,Conditions,WindDirDegrees,DateUTC
12:15 AM,7.7,5.7,92,30.25,3.0,Calm,Calm,-,N/A,,Clear,0,2013-02-16 06:15:00
12:36 AM,6.1,4.1,92,30.25,3.0,Calm,Calm,-,N/A,Snow,Light Snow,0,2013-02-16 06:36:00
12:56 AM,7.0,5.4,93,30.24,2.0,Calm,Calm,-,N/A,Snow,Light Snow,0,2013-02-16 06:56:00
1:15 AM,6.8,5.0,92,30.24,1.5,Calm,Calm,-,N/A,Snow,Light Snow,0,2013-02-16 07:15:00
1:36 AM,6.8,4.8,92,30.23,1.8,Calm,Calm,-,N/A,Snow,Light Snow,0,2013-02-16 07:36:00
1:56 AM,5.9,3.9,92,30.23,1.2,Calm,Calm,-,N/A,Snow,Light Snow,0,2013-02-16 07:56:00
2:16 AM,6.3,4.3,92,30.22,1.5,Calm,Calm,-,N/A,Snow,Light Snow,0,2013-02-16 08:16:00
2:36 AM,7.0,4.8,91,30.22,1.2,Calm,Calm,-,N/A,Snow,Light Snow,0,2013-02-16 08:36:00
2:56 AM,6.4,4.5,92,30.21,2.0,Calm,Calm,-,N/A,Snow,Light Snow,0,2013-02-16 08:56:00
3:16 AM,7.7,5.7,92,30.20,5.0,Calm,Calm,-,N/A,Snow,Light Snow,0,2013-02-16 09:16:00
3:36 AM,6.8,4.6,91,30.18,10.0,Calm,Calm,-,N/A,,Clear,0,2013-02-16 09:36:00
3:56 AM,10.2,8.6,93,30.18,10.0,WSW,3.5,-,N/A,,Clear,240,2013-02-16 09:56:00
4:16 AM,11.3,9.5,92,30.18,10.0,Calm,Calm,-,N/A,,Scattered Clouds,0,2013-02-16 10:16:00
4:35 AM,10.0,7.9,91,30.17,10.0,Calm,Calm,-,N/A,,Scattered Clouds,0,2013-02-16 10:35:00
4:56 AM,9.9,8.2,93,30.16,10.0,Calm,Calm,-,N/A,,Scattered Clouds,0,2013-02-16 10:56:00
5:16 AM,10.0,8.1,92,30.16,10.0,Calm,Calm,-,N/A,,Clear,0,2013-02-16 11:16:00
5:36 AM,6.8,4.6,91,30.15,10.0,Calm,Calm,-,N/A,,Clear,0,2013-02-16 11:36:00
5:56 AM,7.2,5.2,92,30.14,10.0,SE,3.5,-,N/A,,Clear,140,2013-02-16 11:56:00
6:16 AM,6.4,4.5,92,30.14,10.0,SE,3.5,-,N/A,,Clear,140,2013-02-16 12:16:00
6:36 AM,5.7,3.7,92,30.13,10.0,ESE,4.6,-,N/A,,Clear,120,2013-02-16 12:36:00
6:56 AM,4.1,1.9,91,30.12,10.0,SE,3.5,-,N/A,,Clear,130,2013-02-16 12:56:00
7:16 AM,4.5,2.3,91,30.12,10.0,SE,3.5,-,N/A,,Clear,140,2013-02-16 13:16:00
7:36 AM,3.6,1.0,89,30.12,10.0,SE,3.5,-,N/A,,Clear,130,2013-02-16 13:36:00
7:56 AM,4.6,2.3,90,30.12,10.0,SE,4.6,-,N/A,,Clear,140,2013-02-16 13:56:00
8:16 AM,5.5,3.4,91,30.12,10.0,SE,5.8,-,N/A,,Clear,140,2013-02-16 14:16:00
8:35 AM,7.5,5.7,92,30.12,10.0,SE,3.5,-,N/A,,Mostly Cloudy,140,2013-02-16 14:35:00
8:56 AM,8.6,6.8,92,30.12,10.0,SSE,5.8,-,N/A,,Overcast,150,2013-02-16 14:56:00
9:16 AM,10.0,8.4,93,30.11,10.0,SSE,6.9,-,N/A,,Overcast,150,2013-02-16 15:16:00
9:35 AM,11.1,9.3,92,30.11,10.0,SSE,6.9,-,N/A,,Overcast,150,2013-02-16 15:35:00
9:56 AM,11.3,9.5,92,30.10,10.0,SE,4.6,-,N/A,,Overcast,130,2013-02-16 15:56:00
10:16 AM,11.8,9.9,92,30.10,10.0,SE,5.8,-,N/A,,Mostly Cloudy,140,2013-02-16 16:16:00
10:35 AM,12.7,10.2,90,30.09,10.0,SE,6.9,-,N/A,,Scattered Clouds,130,2013-02-16 16:35:00
10:56 AM,13.8,10.0,85,30.09,10.0,SE,6.9,-,N/A,,Clear,130,2013-02-16 16:56:00
11:16 AM,14.7,10.2,82,30.09,10.0,SE,6.9,-,N/A,,Clear,130,2013-02-16 17:16:00
11:36 AM,15.6,10.9,82,30.10,10.0,SE,5.8,-,N/A,,Scattered Clouds,130,2013-02-16 17:36:00
11:56 AM,17.1,11.8,80,30.10,10.0,SE,6.9,-,N/A,,Mostly Cloudy,130,2013-02-16 17:56:00
12:15 PM,17.6,12.4,80,30.09,10.0,SE,6.9,-,N/A,,Overcast,130,2013-02-16 18:15:00
12:36 PM,18.3,12.9,79,30.08,10.0,ESE,6.9,-,N/A,,Overcast,120,2013-02-16 18:36:00
12:56 PM,19.0,13.6,79,30.07,10.0,SE,8.1,-,N/A,,Overcast,130,2013-02-16 18:56:00
1:16 PM,19.2,14.0,80,30.07,10.0,SE,9.2,-,N/A,,Overcast,130,2013-02-16 19:16:00
1:35 PM,19.9,14.5,80,30.06,10.0,ESE,9.2,-,N/A,,Mostly Cloudy,120,2013-02-16 19:35:00
1:56 PM,20.7,15.3,80,30.05,10.0,SE,9.2,-,N/A,,Scattered Clouds,130,2013-02-16 19:56:00
2:16 PM,21.2,15.6,79,30.05,10.0,ESE,9.2,-,N/A,,Clear,120,2013-02-16 20:16:00
2:36 PM,21.7,16.3,80,30.05,10.0,ESE,9.2,-,N/A,,Clear,120,2013-02-16 20:36:00
2:56 PM,22.1,16.7,80,30.04,10.0,ESE,10.4,-,N/A,,Scattered Clouds,120,2013-02-16 20:56:00
3:16 PM,22.1,17.4,82,30.04,10.0,ESE,9.2,-,N/A,,Clear,120,2013-02-16 21:16:00
3:36 PM,22.5,17.6,82,30.04,10.0,ESE,10.4,-,N/A,,Clear,120,2013-02-16 21:36:00
3:56 PM,22.5,18.1,83,30.04,10.0,ESE,9.2,-,N/A,,Clear,120,2013-02-16 21:56:00
4:16 PM,22.5,18.3,84,30.04,10.0,ESE,9.2,-,N/A,,Mostly Cloudy,110,2013-02-16 22:16:00
4:36 PM,21.6,18.0,86,30.04,10.0,ESE,8.1,-,N/A,,Scattered Clouds,110,2013-02-16 22:36:00
4:55 PM,20.8,17.4,87,30.04,10.0,ESE,9.2,-,N/A,,Clear,120,2013-02-16 22:55:00
5:16 PM,20.3,17.4,89,30.04,10.0,ESE,9.2,-,N/A,,Clear,120,2013-02-16 23:16:00
5:36 PM,19.8,16.7,88,30.05,10.0,ESE,8.1,-,N/A,,Clear,120,2013-02-16 23:36:00
5:56 PM,18.9,16.3,90,30.05,10.0,ESE,6.9,-,N/A,,Clear,120,2013-02-16 23:56:00
6:15 PM,18.1,15.8,91,30.05,10.0,ESE,6.9,-,N/A,,Clear,120,2013-02-17 00:15:00
6:36 PM,16.9,14.5,91,30.04,10.0,SE,5.8,-,N/A,,Clear,130,2013-02-17 00:36:00
6:56 PM,15.8,13.8,92,30.04,10.0,ESE,5.8,-,N/A,,Clear,120,2013-02-17 00:56:00
7:15 PM,15.3,13.5,93,30.04,10.0,ESE,6.9,-,N/A,,Clear,110,2013-02-17 01:15:00
7:36 PM,14.5,12.9,93,30.03,10.0,SE,5.8,-,N/A,,Clear,130,2013-02-17 01:36:00
7:56 PM,13.5,12.2,95,30.03,10.0,SE,6.9,-,N/A,,Clear,130,2013-02-17 01:56:00
8:16 PM,13.1,11.8,95,30.03,10.0,SE,6.9,-,N/A,,Clear,130,2013-02-17 02:16:00
8:35 PM,12.6,11.1,94,30.03,10.0,SE,5.8,-,N/A,,Clear,130,2013-02-17 02:35:00
8:56 PM,12.2,10.9,95,30.04,10.0,Calm,Calm,-,N/A,,Clear,0,2013-02-17 02:56:00
9:16 PM,12.7,11.3,94,30.04,10.0,Calm,Calm,-,N/A,,Clear,0,2013-02-17 03:16:00
9:35 PM,11.7,10.4,95,30.04,10.0,Calm,Calm,-,N/A,,Mostly Cloudy,0,2013-02-17 03:35:00
9:56 PM,12.9,11.8,95,30.03,10.0,Calm,Calm,-,N/A,,Overcast,0,2013-02-17 03:56:00
10:16 PM,12.7,11.3,94,30.03,10.0,SE,3.5,-,N/A,,Mostly Cloudy,130,2013-02-17 04:16:00
10:36 PM,13.6,12.4,95,30.02,10.0,SE,4.6,-,N/A,,Overcast,130,2013-02-17 04:36:00
10:56 PM,14.0,12.6,94,30.02,10.0,SSE,3.5,-,N/A,,Overcast,150,2013-02-17 04:56:00
11:16 PM,14.5,13.1,94,30.01,10.0,ESE,5.8,-,N/A,,Overcast,120,2013-02-17 05:16:00
11:36 PM,14.9,13.6,95,30.00,10.0,SE,4.6,-,N/A,,Overcast,130,2013-02-17 05:36:00
11:55 PM,15.4,14.0,94,29.99,10.0,SE,5.8,-,N/A,,Overcast,130,2013-02-17 05:55:00